Regional Weather Roundup
Issued by NWS Kansas City/Pleasant Hill, MO

Home | Current Version | Previous Version | Graphics & Text | Print | Product List | Glossary Off
Versions: 1 2 3 4 5 6 7 8 9 10 11 12 13 14 15 16 17 18 19 20 21 22 23 24 25 26 27 28 29 30 31 32 33 34 35 36 37 38 39 40 41 42 43 44 45 46 47 48 49

000
ASUS43 KEAX 070010
RWREAX

WEATHER ROUNDUP FOR EASTERN KANSAS AND NORTHWEST MISSOURI
NATIONAL WEATHER SERVICE KANSAS CITY/PLEASANT HILL MO
600 PM CST SAT FEB 06 2016

KSZ040-057-103>105-MOZ028-029-037-043-070100-
...KANSAS CITY METROPOLITAN AREA...

CITY           SKY/WX    TMP DP  RH WIND       PRES   REMARKS
K.C. INTL      PTCLDY    41  29  62 SW9       30.16F
6HR MIN TEMP:  41; 6HR MAX TEMP:  49;

K.C. DOWNTOWN  CLEAR     47  28  47 SW7       30.18F
6HR MIN TEMP:  45; 6HR MAX TEMP:  50;

LEES SUMMIT    CLEAR     45  29  53 SW12      30.18F
6HR MIN TEMP:  44; 6HR MAX TEMP:  49;

OLATHE - IXD   CLEAR     41  28  60 SW8       30.19F
6HR MIN TEMP:  41; 6HR MAX TEMP:  48; 6HR PCP: TRACE;

OLATHE - OJC   CLEAR     43  27  53 SW6       30.19F
6HR MIN TEMP:  42; 6HR MAX TEMP:  47;

LAWRENCE       CLEAR     44  28  53 SW8       30.18F

$$

MOZ001>008-011>017-020>025-030>033-038>040-044>046-053-054-070100-
...NORTHERN AND CENTRAL MISSOURI...

CITY           SKY/WX    TMP DP  RH WIND       PRES   REMARKS
ST. JOSEPH     CLEAR     42  29  59 SW9       30.15F
6HR MIN TEMP:  41; 6HR MAX TEMP:  48;

MOSBY          CLEAR     45  30  57 SW7       30.18F
WARRENSBURG    CLEAR     43  30  61 SW7       30.20S
WHITEMAN AFB   CLEAR     43  28  54 SW8       30.18F
6HR MIN TEMP:  43; 6HR MAX TEMP:  51;

CLINTON          N/A     46  30  53 SW8       30.21F
SEDALIA        CLEAR     44  27  51 SW7       30.21S
6HR MIN TEMP:  44; 6HR MAX TEMP:  52;

WARSAW         NOT AVBL
CHILLICOTHE      N/A     44  30  57 SW3       30.17F
6HR MIN TEMP:  43; 6HR MAX TEMP:  49;

KIRKSVILLE     CLEAR     41  28  60 SW6       30.15F
6HR MIN TEMP:  41; 6HR MAX TEMP:  49;


$$

MOZ041-047>049-056>058-063>065-088>090-097-070100-
...EASTERN AND SOUTHERN MISSOURI...

CITY           SKY/WX    TMP DP  RH WIND       PRES   REMARKS
ST. LOUIS INTL PTCLDY    50  26  39 SW6       30.19F
6HR MIN TEMP:  50; 6HR MAX TEMP:  58;

SPIRIT OF STL  PTCLDY    48  27  44 SW6       30.19S
COLUMBIA       CLEAR     47  27  45 W9        30.19S
JEFFERSON CITY CLEAR     49  27  42 W5        30.20S
ROLLA          CLEAR     46  27  47 SW9       30.18F
OSAGE BEACH    CLEAR     50  27  40 SW8       30.21S
SPRINGFIELD    CLEAR     48  25  40 W8        30.22S
BRANSON        PTCLDY    48  23  37 SW7       30.25S
JOPLIN         CLEAR     46  30  53 SW6       30.25F
WEST PLAINS    CLEAR     46  17  31 S6        30.24F

$$

IAZ060-094-KSZ022-034>040-054-083-096-NEZ052-066-093-070100-
...KANSAS...SOUTHEAST NEBRASKA AND IOWA...

CITY           SKY/WX    TMP DP  RH WIND       PRES   REMARKS
TOPEKA         CLEAR     47  27  45 SW7       30.17F
6HR MIN TEMP:  42; 6HR MAX TEMP:  50;

MANHATTAN      PTCLDY    42  26  53 SW7       30.16F
EMPORIA        CLEAR     40  26  57 SW7       30.19F
CHANUTE        PTCLDY    44  27  51 SW8       30.23S
WICHITA        PTCLDY    44  26  49 S12       30.20F
OMAHA          CLOUDY    39  27  62 S15       30.02F WCI  31
LINCOLN        CLOUDY    37  24  59 SW18      30.04F WCI  27
FALLS CITY     CLOUDY    43  28  55 S10       30.11F
LAMONI         CLEAR     36  29  75 SW8       30.11F WCI  30
DES MOINES     PTCLDY    35  29  78 S12       30.08F WCI  27

$$




USA.gov is the U.S. government's official web portal to all federal, state and local government web resources and services.